Location: Unspecified
(51.0950°N, 12.9690°E)
Time: 05:40:27
(UTC+00:00)

ATLAS 3B R/B - Pass Details

Date: 29 May 2022
Orbit: 976 x 1218 km, 63.8° (Epoch: 20 June)

Event Time Altitude Azimuth Distance (km) Brightness Sun altitude
Rises 20:26:22 0° 316° (NW) 3,942 7.9 -9.2°
Reaches altitude 10° 20:29:00 10° 314° (NW) 3,014 6.6 -9.5°
Maximum altitude 20:36:11 71° 233° (SW) 1,235 3.0 -10.1°
Enters shadow 20:43:00 13° 152° (SSE) 2,903 4.3 -10.7°
